Lexington Weather

Lexington, Massachusetts, USA

50°F
12/8/2022 1:39pm 
  • Lexington Conditions: Clear
  • Temperature: 50.0°F / 10.0°CColder 0.2°F than last hour.
  • Dew Point: 35.4°FDecreased 1.5°Fsince last hour.
  • Relative Humidity: 57%Decreased 3.0% since last hour.
  • Wind: Wind from WNW WNW 5 mph, 10-min avg: 4 mph, gust: 11 mph
  • Barometer: 30.06 in Steady
  • Visibility: 10 miles
  • Rain Today: 0.00 in
  •   

Regional Weather Roundup
for Boston, MA

        
000
ASUS41 KBOX 080010
RWRBOX

REGIONAL WEATHER ROUNDUP
NATIONAL WEATHER SERVICE BOSTON/NORTON MA
700 PM EST WED DEC 07 2022

NOTE:  "FAIR" INDICATES FEW OR NO CLOUDS BELOW 12,000 FEET WITH NO 
SIGNIFICANT WEATHER AND/OR OBSTRUCTIONS TO VISIBILITY.

MAZALL-080100-
EASTERN MASSACHUSETTS
  
CITY           SKY/WX    TMP DP  RH WIND       PRES   REMARKS
BOSTON         CLOUDY    57  55  93 S12       30.03F                  
6HR MIN TEMP:  55; 6HR MAX TEMP:  58; 6HR PCP:  0.13;                

BEVERLY        CLOUDY    55  54  96 S6        30.01F                  
LAWRENCE       CLOUDY    58  56  93 S7        30.03F                  
BEDFORD        CLOUDY    59  56  89 SW7       30.01F                  
NORWOOD        CLOUDY    59  56  89 S8        30.03F                  
MARSHFIELD       N/A     57  57 100 VRB7      30.04F                  
PLYMOUTH       CLOUDY    58  56  93 SW8       30.04F                  
TAUNTON          N/A    N/A N/A N/A MISG      30.05F                  
NEW BEDFORD    CLOUDY    58  58 100 SW14      30.05F FOG              
$$

MAZALL-080100-
CAPE COD AND THE ISLANDS
  
CITY           SKY/WX    TMP DP  RH WIND       PRES   REMARKS
FALMOUTH       CLOUDY    57  57 100 S10       30.07F FOG              
HYANNIS        LGT RAIN  53  53 100 S13       30.05F FOG              
CHATHAM        RAIN      57  55  93 VRB7      30.09F FOG              
PROVINCETOWN   LGT RAIN  54  54 100 S16G22    30.06F FOG              
NANTUCKET      LGT RAIN N/A N/A N/A S15       30.10F                  
MARTHAS VNYRD  LGT RAIN  58  57  97 S16       30.06F FOG              
$$
 
MAZALL-080100-
CENTRAL AND WESTERN MASSACHUSETTS
  
CITY           SKY/WX    TMP DP  RH WIND       PRES   REMARKS
WORCESTER      FOG       56  54  93 SW7       30.02F VSB 3/4          
6HR MIN TEMP:  56; 6HR MAX TEMP:  57; 6HR PCP:  0.13;                

FITCHBURG      CLOUDY    56  53  90 SE5       30.02F                  
ORANGE         CLOUDY    56  54  93 S6        30.03R FOG              
SPRINGFIELD    CLOUDY    56  56  99 SW7       30.01S FOG              
WESTFIELD      CLOUDY    55  55 100 S5        30.02S FOG              
NORTH ADAMS    LGT RAIN  57  55  93 W7        30.04R                  
PITTSFIELD     CLOUDY    54  53  97 W9        30.03R FOG              
$$
 
RIZALL-080100-
RHODE ISLAND
  
CITY           SKY/WX    TMP DP  RH WIND       PRES   REMARKS
PROVIDENCE     CLOUDY    56  56 100 S7        30.05F                  
6HR MIN TEMP:  56; 6HR MAX TEMP:  57; 6HR PCP:  0.30;                

NEWPORT        FOG       56  56 100 SW8       30.05S VSB 3/4          
BLOCK ISLAND   LGT RAIN  55  55 100 SW15      30.07F VSB 3/4          
SMITHFIELD     CLOUDY    56  56 100 VRB6      30.04F FOG              
WESTERLY       FOG       56  56 100 S7        30.05S VSB 1            
$$
 
CTZALL-080100-
CONNECTICUT
  
CITY           SKY/WX    TMP DP  RH WIND       PRES   REMARKS
BRADLEY INTL   CLOUDY    57  55  93 S7        30.02F FOG              
6HR MIN TEMP:  57; 6HR MAX TEMP:  58;                                

HARTFORD       CLOUDY    57  55  93 S7        30.03F                  
BRIDGEPORT     FOG       52  52 100 SW5       30.06F VSB 3/4          
DANBURY        CLOUDY    58  55  90 W9        30.07S                  
GROTON         FOG       57  55  93 SW8       30.05S VSB 1/2          
NEW HAVEN      FOG       56  55  97 SW5       30.05F VSB 1/2          
CHESTER        FOG       55  55 100 VRB5      30.05F VSB<1/4          
MERIDEN        FOG       56  54  93 S5        30.05F VSB 1            
WILLIMANTIC    CLOUDY    56  56 100 SW5       30.04F                  
OXFORD         FOG       56  56 100 VRB3      30.05F VSB 3/4          
$$

MEZ002-015-021-024-NHZ003-005-008-011-012-014-VTZ005-008-080100-
NORTHERN NEW ENGLAND
  
CITY           SKY/WX    TMP DP  RH WIND       PRES   REMARKS
PORTLAND ME    FOG       51  51 100 S8        30.03F VSB 1            
6HR MIN TEMP:  50; 6HR MAX TEMP:  51; 6HR PCP:  0.15;                

BANGOR ME      LGT RAIN  52  51  97 S8        30.05F                  
CONCORD NH     FOG       48  48 100 NW5       30.02F VSB 1            
MANCHESTER NH  DRZL/FOG  57  55  93 S10       30.00F VSB 1/2          
NASHUA NH      CLOUDY    56  50  81 CALM      30.02F                  
PORTSMOUTH NH  FOG       54  54  99 S7        30.01F VSB 1/4          
JAFFREY NH     CLOUDY    56  54  93 S5        30.01F FOG              
KEENE NH       CLOUDY    55  55 100 CALM        N/A  FOG              
BURLINGTON VT  CLOUDY    48  46  93 NE6       30.06S                  
MT. WASHINGTON LGT RAIN  39  39 100 W47G53      N/A  VSB 0   WCI  25  
$$

NYZ052-076-080100-
EASTERN NEW YORK
  
CITY           SKY/WX    TMP DP  RH WIND       PRES   REMARKS
ALBANY         CLOUDY    56  51  84 W12       30.08R                  
6HR MIN TEMP:  55; 6HR MAX TEMP:  58; 6HR PCP:  0.04;                

NEW YORK CITY  CLOUDY    57  53  86 SW10      30.09S                  
6HR MIN TEMP:  57; 6HR MAX TEMP:  59; 6HR PCP: TRACE;                

$$
 
ANZALL-080100-
MARINE OBSERVATIONS
  
STATION/POSITION TIME  TEMP    WIND        PRES    VSBY  WAVE
                       AIR SEA DIR/SP/G                  HT/PER
                 (UTC) (F)     (DEG/KT/KT) (MB)    (MI)  (FT/S)
BOSTON BUOY      2350      50  160/ 12/ 14 1017.7F         5/ 9
BUZZARDS BAY     2300   56     200/ 22/ 23 1019.2F
NANTUCKET SOUND  2350   54 49  180/ 17/ 21 1018.3F         2/ 3
MASS BAY-STELLWA 2204   52 50  160/ 16/ 19 1017.8F  1 7/8  6/ 8
ISLE OF SHOALS   2300   52     170/ 21/ 22 1016.5F
S OF BLOCK IS    2326      55                N/A           6/11
$$

......................KEY.........................
  SKY/WX - SKY CONDITION/PRESENT WEATHER
  TMP    - TEMPERATURE IN FAHRENHEIT
  DWPT   - DEWPOINT IN FAHRENHEIT
  RH     - RELATIVE HUMIDITY IN PERCENT
  WIND   - DIRECTION AND SPEED IN MPH
  PRES   - MEAN SEA LEVEL PRESSURE IN INCHES OF HG
  WCI    - WIND CHILL INDEX
  VSB    - VISIBILITY IN MILES
  HX     - HEAT INDEX
  TC     - TEMPERATURE IN CELSIUS
  VRB    - VARIABLE WIND DIRECTION
  N/A    - NOT AVAILABLE
  
      

Other recent Regional Weather Roundups

Thu Dec 8, 1:10pm

Thu Dec 8, 12:10pm

Thu Dec 8, 11:10am

Thu Dec 8, 10:10am

Thu Dec 8, 9:10am

Thu Dec 8, 8:10am

Thu Dec 8, 7:10am

Thu Dec 8, 6:10am

Thu Dec 8, 5:10am

Thu Dec 8, 4:10am

Thu Dec 8, 3:10am

Thu Dec 8, 2:10am

Thu Dec 8, 1:10am

Thu Dec 8, 12:10am

Wed Dec 7, 11:10pm

Wed Dec 7, 10:10pm

Wed Dec 7, 9:10pm

Wed Dec 7, 8:10pm

Wed Dec 7, 6:10pm

Wed Dec 7, 5:10pm

Wed Dec 7, 4:10pm

Wed Dec 7, 3:10pm

Wed Dec 7, 2:10pm

Wed Dec 7, 1:10pm

Wed Dec 7, 12:10pm

Wed Dec 7, 11:10am

Wed Dec 7, 10:10am

Wed Dec 7, 9:10am

Wed Dec 7, 8:10am

Wed Dec 7, 7:10am

Wed Dec 7, 6:10am

Wed Dec 7, 5:10am

Wed Dec 7, 4:10am

Wed Dec 7, 3:10am

Wed Dec 7, 2:10am

Wed Dec 7, 1:10am

Wed Dec 7, 12:10am

Tue Dec 6, 11:10pm

Tue Dec 6, 10:10pm

Tue Dec 6, 9:10pm

Tue Dec 6, 8:10pm

Tue Dec 6, 7:10pm

Tue Dec 6, 6:10pm

Tue Dec 6, 5:10pm

Tue Dec 6, 4:10pm

Tue Dec 6, 3:10pm

Tue Dec 6, 2:10pm

Tue Dec 6, 1:10pm

Tue Dec 6, 12:10pm

Tue Dec 6, 11:10am

Tue Dec 6, 10:10am

Tue Dec 6, 9:10am

Tue Dec 6, 8:10am

Tue Dec 6, 7:10am

Tue Dec 6, 6:10am

Tue Dec 6, 5:10am

Tue Dec 6, 4:10am

Tue Dec 6, 3:10am

Tue Dec 6, 2:10am

Tue Dec 6, 1:10am

Tue Dec 6, 12:10am

Mon Dec 5, 11:10pm

Mon Dec 5, 10:10pm

Mon Dec 5, 9:10pm

Mon Dec 5, 8:10pm

Mon Dec 5, 7:10pm

Mon Dec 5, 6:10pm

Mon Dec 5, 5:10pm

Mon Dec 5, 4:10pm

Mon Dec 5, 3:10pm

Mon Dec 5, 2:10pm

Mon Dec 5, 1:10pm

Mon Dec 5, 12:10pm

Mon Dec 5, 11:10am

Mon Dec 5, 10:10am

Mon Dec 5, 9:10am

Mon Dec 5, 8:10am

Mon Dec 5, 7:10am

Mon Dec 5, 6:10am

Mon Dec 5, 5:10am

Mon Dec 5, 4:10am

Mon Dec 5, 3:10am

Mon Dec 5, 2:10am

Mon Dec 5, 1:10am

Mon Dec 5, 12:10am

Sun Dec 4, 11:10pm

Sun Dec 4, 10:10pm

Sun Dec 4, 9:10pm

Sun Dec 4, 8:10pm

Sun Dec 4, 7:10pm

Sun Dec 4, 6:10pm

Sun Dec 4, 5:10pm

Sun Dec 4, 4:10pm

Sun Dec 4, 3:10pm

Sun Dec 4, 2:10pm

Sun Dec 4, 1:10pm

Sun Dec 4, 12:10pm

Sun Dec 4, 11:10am

Sun Dec 4, 10:10am

Sun Dec 4, 9:10am

Sun Dec 4, 8:10am

Sun Dec 4, 7:10am

Sun Dec 4, 6:10am

Sun Dec 4, 5:10am

Sun Dec 4, 4:10am

Sun Dec 4, 3:10am

Sun Dec 4, 2:10am

Sun Dec 4, 1:10am

Sun Dec 4, 12:10am

Sat Dec 3, 11:10pm

Sat Dec 3, 10:10pm

Sat Dec 3, 9:10pm

Sat Dec 3, 8:10pm

Sat Dec 3, 7:10pm

Sat Dec 3, 6:10pm

Sat Dec 3, 5:10pm

Sat Dec 3, 4:10pm

Sat Dec 3, 3:10pm

Sat Dec 3, 2:10pm

Sat Dec 3, 1:10pm

Sat Dec 3, 12:10pm

Sat Dec 3, 11:10am

Sat Dec 3, 10:10am

Sat Dec 3, 9:10am

Sat Dec 3, 8:10am

Sat Dec 3, 7:10am

Sat Dec 3, 6:10am

Sat Dec 3, 5:10am

Sat Dec 3, 4:10am

Sat Dec 3, 3:10am

Sat Dec 3, 2:10am

Sat Dec 3, 1:10am

Sat Dec 3, 12:10am

Fri Dec 2, 11:10pm

Fri Dec 2, 10:10pm

Fri Dec 2, 9:10pm

Fri Dec 2, 8:10pm

Fri Dec 2, 7:10pm

Fri Dec 2, 6:10pm

Fri Dec 2, 5:10pm

Fri Dec 2, 4:10pm

Fri Dec 2, 3:10pm

Fri Dec 2, 2:10pm

Fri Dec 2, 1:10pm

Fri Dec 2, 12:10pm

Fri Dec 2, 11:10am

Fri Dec 2, 10:10am

Fri Dec 2, 9:10am

Fri Dec 2, 8:10am

Fri Dec 2, 7:10am

Fri Dec 2, 6:10am

Fri Dec 2, 5:10am

Fri Dec 2, 4:10am

Fri Dec 2, 3:10am

Fri Dec 2, 2:10am

Fri Dec 2, 1:10am

Fri Dec 2, 12:10am

Thu Dec 1, 11:10pm

Thu Dec 1, 10:10pm

Thu Dec 1, 9:10pm

Thu Dec 1, 8:10pm

Thu Dec 1, 7:10pm

Thu Dec 1, 6:10pm

Thu Dec 1, 5:10pm

Thu Dec 1, 4:10pm

Thu Dec 1, 3:10pm

Thu Dec 1, 2:10pm

Meta data:

ID: eef3f38c-e9c1-4f1d-98c1-f233b094a7ac
Link: https://api.weather.gov/products/eef3f38c-e9c1-4f1d-98c1-f233b094a7ac